This is the latest recevied weather packets stored in our database for station/object KD4VIF. If no packets are shown the sender has not sent any weather packets the latest 10 day(s).
| Time | Temp. | Humidity | Pressure | Rain* | Wind** | Luminosity | Snow |
|---|---|---|---|---|---|---|---|
| 1777505899 | 22.22° C | 100% | 1006.3 hPa | 0 mm | 0 m/s | - | - |
| 1777505600 | 22.78° C | 100% | 1006.4 hPa | 0 mm | 0 m/s | - | - |
| 1777505299 | 22.78° C | 100% | 1006.4 hPa | 0 mm | 0 m/s | - | - |
| 1777504699 | 22.78° C | 100% | 1006.6 hPa | 0 mm | 0 m/s | - | - |
| 1777504399 | 22.78° C | 100% | 1006.6 hPa | 0 mm | 0 m/s | - | - |
| 1777503498 | 23.33° C | 100% | 1006.8 hPa | 0 mm | 0 m/s | - | - |
| 1777503199 | 23.89° C | 100% | 1006.7 hPa | 0 mm | 0 m/s | - | - |
| 1777502898 | 23.89° C | 100% | 1006.8 hPa | 0 mm | 0 m/s | - | - |
| 1777502599 | 24.44° C | 100% | 1006.6 hPa | 0 mm | 0 m/s | - | - |
| 1777502000 | 25.56° C | 100% | 1006.5 hPa | 0 mm | 0.89 m/s, 291° | - | - |
| 1777501398 | 25.56° C | 100% | 1006.8 hPa | 0 mm | 0.45 m/s, 286° | - | - |
| 1777501099 | 25.56° C | 100% | 1006.8 hPa | 0 mm | 0.89 m/s, 264° | - | - |
| 1777500799 | 25.56° C | 100% | 1007 hPa | 0 mm | 1.34 m/s, 306° | - | - |
| 1777500199 | 25.56° C | 100% | 1006.9 hPa | 0 mm | 2.24 m/s, 307° | - | - |
| 1777499900 | 25.56° C | 100% | 1006.9 hPa | 0 mm | 0 m/s | - | - |
| 1777499598 | 25.56° C | 100% | 1006.7 hPa | 0 mm | 0.45 m/s, 282° | - | - |
| 1777499298 | 25.56° C | 100% | 1007 hPa | 0 mm | 0.89 m/s, 289° | - | - |
| 1777498999 | 25.56° C | 100% | 1007 hPa | 0 mm | 0.45 m/s, 303° | - | - |
| 1777498699 | 26.11° C | 100% | 1007 hPa | 0 mm | 0 m/s | - | - |
| 1777498399 | 26.11° C | 100% | 1007.1 hPa | 0 mm | 1.79 m/s, 272° | - | - |
| 1777497799 | 26.11° C | 100% | 1007.1 hPa | 0 mm | 1.34 m/s, 293° | - | - |
| 1777497498 | 26.11° C | 100% | 1007.2 hPa | 0 mm | 1.34 m/s, 286° | - | - |
| 1777497199 | 25.56° C | 100% | 1007.3 hPa | 0 mm | 0 m/s | - | - |
| 1777496299 | 25.56° C | 100% | 1007.4 hPa | 0 mm | 0.45 m/s, 258° | - | - |
| 1777494798 | 25.56° C | 100% | 1007.6 hPa | 0 mm | 1.34 m/s, 299° | - | - |
* Rain latest hour (hover to see other rain measurements)
** Current wind speed in m/s (hover to see current wind gust speed)